Regional Weather Roundup
Issued by NWS Newport/Morehead, NC

Current Version | Previous Version | Graphics & Text | Print | Product List | Glossary On
Versions: 1 2 3 4 5 6 7 8 9 10 11 12 13 14 15 16 17 18 19 20 21 22 23 24 25 26 27 28 29 30 31 32 33 34 35 36 37 38 39 40 41 42 43 44 45 46 47 48 49 50
000 ASUS42 KMHX 311725 RWRMHX WEATHER ROUNDUP FOR EASTERN NORTH CAROLINA NATIONAL WEATHER SERVICE NEWPORT/MOREHEAD CITY NC 100 PM EDT WED AUG 31 2016 NOTE: "FAIR" INDICATES FEW OR NO CLOUDS BELOW 12,000 FEET WITH NO SIGNIFICANT WEATHER AND/OR OBSTRUCTIONS TO VISIBILITY NCZ015>017-031-032-045>047-102-103-311800- NORTH COAST CITY SKY/WX TMP DP RH WIND PRES REMARKS EDENTON MOSUNNY 87 73 63 S7 29.98F ELIZABETH CITY MOSUNNY 88 69 53 NE10 29.97F KITTY HAWK MOSUNNY 88 79 76 N7 29.96S HX 103 MANTEO SUNNY 85 75 72 NE9 29.97F $$ NCZ045>047-081-094-103-104-311800- CENTRAL COAST CITY SKY/WX TMP DP RH WIND PRES REMARKS FRISCO PTSUNNY 85 76 74 NE8 29.96F $$ NCZ095-097-098-100-101-311800- SOUTHERN COAST CITY SKY/WX TMP DP RH WIND PRES REMARKS BEAUFORT CLOUDY 87 74 64 VRB7 29.97F CEDAR ISLAND NOT AVBL JACKSONVILLE CLOUDY 82 73 74 CALM 29.98F PINEY ISLAND CLOUDY N/A N/A N/A NW8 29.97 WILMINGTON CLOUDY 81 73 76 CALM 29.99F $$ NCZ011>013-027>030-043-044-078>080-089-090>093-098-311800- COASTAL PLAIN CITY SKY/WX TMP DP RH WIND PRES REMARKS AHOSKIE MOSUNNY 85 68 56 N3 29.98F CLINTON CLOUDY 84 75 73 CALM 29.99F ELIZABETHTOWN CLOUDY 83 73 72 CALM 29.99F GOLDSBORO PTSUNNY 87 73 62 VRB3 29.97F GREENVILLE CLOUDY 88 70 55 E5 29.99F HAVELOCK CLOUDY 85 74 69 CALM 29.99F KENANSVILLE CLOUDY 82 72 69 CALM 29.98F KINSTON PTSUNNY 86 72 62 NE5 29.99F NEW BERN CLOUDY 85 72 65 N3 29.99F RICHLANDS CLOUDY 82 75 79 E5 29.99F ROCKY MOUNT MOSUNNY 88 72 58 NE6 29.98F WASHINGTON PTSUNNY 84 73 71 E6 29.98F WHITEVILLE LGT RAIN 81 74 79 SE3 29.99F $$ AMZ130-135-150-152-154-156-158-170-250-252-270-ANZ085-086-088-633-658-670-311800- MARINE OBSERVATIONS STATION/POSITION TIME TEMP WIND PRES WAVE SWELL AIR SEA DIR/SP/G HT/PER HT/PER (UTC) (F) (DEG/KT/KT) (MB) (FT/S) (FT/S) CHESAPEAKE LIGHT NOT AVBL 64 E VA BEACH 1650 80 81 30/ 12/ 14 1014.3 4/10 3/10 DUCK 1700 80 81 10/ 8/ 11 1014.2 2 E DUCK 1611 80 N/A 3/11 2/11 OREGON INLET 1700 82 81 360/ 8/ 11 1014.6 13E OREGON INLT 1700 80 N/A 4/10 3/10 HATTERAS CG 1700 82 82 10/ 11/ 12 1014.2 DIAMOND BUOY 1650 82 85 20/ 10/ 12 1014.4 3/12 3/12 CAPE LOOKOUT 1700 83 60/ 5/ 7 1014.6 BEAUFORT LAB 1700 84 81 350/ 5/ 6 1014.3 30 SE NEW RVR IN 1708 81 84 30/ 4/ 6 1015.2 30 SE NEW RVR IN 1625 84 N/A 3/11 2/11 27 SE WRIGHTSVLE 1708 81 84 20/ 4/ 8 1015.5 5 SE WRIGHTSVLE 1708 80 83 70/ 6/ 8 1016.4 225 S CAPE HAT 1650 82 84 210/ 12/ 19 1016.0 4/11 3/11 41 SE CHARLESTON 1650 80 85 100/ 17/ 21 1013.7 4/11 2/11 $$

USA.gov is the U.S. government's official web portal to all federal, state and local government web resources and services.